Location: G�ppingen
(48.7089°N, 9.6563°E)
Time: 06:40:11
(UTC+01:00)

N. Korean satellite - Visible Passes

Search period start: 17 November 2019 00:00
Search period end: 27 November 2019 00:00
Orbit: 456 x 506 km, 97.2° (Epoch: 16 November)

Date Brightness Start Highest point End Pass type
(mag) Time Alt. Az. Time Alt. Az. Time Alt. Az.
17 Nov 6.6 06:25:20 10° NNE 06:29:05 89° WNW 06:32:46 10° SSW visible
17 Nov 10.2 18:40:05 10° WSW 18:41:33 12° W 18:43:01 10° WNW visible
18 Nov 7.8 06:00:03 10° NNE 06:03:39 45° E 06:07:12 10° S visible
18 Nov 9.4 18:13:01 10° SW 18:15:55 22° W 18:18:51 10° NW visible
19 Nov 9.2 05:35:04 10° NE 05:38:09 24° E 05:41:10 10° SSE visible
19 Nov 8.1 17:46:54 10° S 17:50:22 41° W 17:53:55 10° NNW visible
20 Nov 10.1 05:10:43 10° ENE 05:12:32 13° E 05:14:19 10° ESE visible
20 Nov 6.7 06:42:37 10° N 06:46:16 55° WNW 06:49:52 10° SSW visible
20 Nov 6.7 17:21:16 10° SSE 17:24:56 84° WSW 17:28:40 10° NNW visible
21 Nov 6.8 06:17:11 10° NNE 06:20:55 74° ESE 06:24:34 10° S visible
21 Nov 10.0 18:31:09 10° SW 18:33:16 15° W 18:35:25 10° NW visible
22 Nov 8.3 05:51:58 10° NNE 05:55:27 36° E 05:58:51 10° SSE visible
22 Nov 9.0 18:04:30 10° SSW 18:07:40 27° W 18:10:52 10° NW visible
23 Nov 9.5 05:27:07 10° NE 05:29:53 20° E 05:32:36 10° SE visible
23 Nov 7.2 07:00:00 10° N 07:03:24 35° WNW 07:06:44 10° SW visible
23 Nov 7.6 17:38:33 10° S 17:42:09 52° W 17:45:49 10° NNW visible
24 Nov 10.3 05:03:26 10° ENE 05:04:14 11° E 05:05:01 10° E visible
24 Nov 6.5 06:34:24 10° N 06:38:05 69° WNW 06:41:42 10° SSW visible
24 Nov 6.6 17:13:03 10° SSE 17:16:44 78° ENE 17:20:28 10° N visible
25 Nov 7.2 06:09:01 10° NNE 06:12:40 59° E 06:16:16 10° S visible
25 Nov 9.7 18:22:24 10° SW 18:24:58 18° W 18:27:34 10° NW visible
26 Nov 8.7 05:43:53 10° NNE 05:47:11 30° E 05:50:23 10° SSE visible
26 Nov 8.6 17:56:02 10° SSW 17:59:23 33° W 18:02:48 10° NNW visible
